Regional Weather Roundup
Issued by NWS Charleston, SC

Current Version | Previous Version | Graphics & Text | Print | Product List | Glossary On
Versions: 1 2 3 4 5 6 7 8 9 10 11 12 13 14 15 16 17 18 19 20 21 22 23 24 25 26 27 28 29 30 31 32 33 34 35 36 37 38 39 40 41 42 43 44 45 46 47 48 49 50
000 ASUS42 KCHS 300028 RWRCHS REGIONAL WEATHER ROUNDUP NATIONAL WEATHER SERVICE CHARLESTON SC 800 PM EDT FRI JUL 29 2016 NOTE: "FAIR" INDICATES FEW OR NO CLOUDS BELOW 12,000 FEET WITH NO SIGNIFICANT WEATHER AND/OR OBSTRUCTIONS TO VISIBILITY. NOT ALL STATIONS ARE QUALITY CONTROLLED. USE DATA WITH CAUTION... ESPECIALLY DEWPOINT OBSERVATIONS. SCZ027-030-031-034>040-042>050-300100- ...SOUTHEAST SOUTH CAROLINA... CITY SKY/WX TMP DP RH WIND PRES REMARKS N CHARLESTON PTCLDY 89 76 65 SW15 29.93R HX 100 6HR MIN TEMP: 89; 6HR MAX TEMP: 99; WATERFRONT PRK N/A 88 79 74 SW12 29.91S HX 103 MOUNT PLEASANT FAIR 88 79 74 S8 29.94R HX 102 JOHNS ISLAND FAIR 88 79 74 S9 29.94S HX 102 PINOPOLIS N/A 93 75 55 SW7 29.83R HX 104 MONCKS CORNER FAIR 86 66 51 CALM 29.92R SUMMERVILLE NOT AVBL BEAUFORT MCAS CLEAR 90 77 65 S8 29.94R HX 103 6HR MIN TEMP: 90; 6HR MAX TEMP: 101; BEAUFORT ARPT FAIR 88 77 70 S8 29.94R HX 100 HILTON HEAD IS CLEAR 88 79 74 S12G17 29.95S HX 102 WALTERBORO CLEAR 91 70 49 SW3 29.94R HX 97 ALLENDALE FAIR 91 70 49 CALM 29.93R HX 97 ...SOUTHERN MIDLANDS AND PEE DEE... CITY SKY/WX TMP DP RH WIND PRES REMARKS GEORGETOWN FAIR 84 77 79 S8 29.93R HX 94 KINGSTREE FAIR 88 70 55 CALM 29.91R HX 92 ORANGEBURG CLEAR 93 69 45 SW7 29.92R HX 98 6HR MIN TEMP: 93; 6HR MAX TEMP: 99; BARNWELL NOT AVBL AIKEN FAIR 90 64 43 W8 29.97R HX 91 MANNING FAIR 90 70 51 SW5 29.91R HX 95 COLUMBIA PTCLDY 94 69 44 NW5 29.90R HX 99 6HR MIN TEMP: 93; 6HR MAX TEMP: 100; SUMTER LGT RAIN 79 75 89 VRB2 29.92R 6HR PCP: 0.50; FLORENCE CLOUDY 80 75 84 SE5 29.93R 6HR MIN TEMP: 80; 6HR MAX TEMP: 96; 6HR PCP: 0.04; MYRTLE BEACH PTCLDY 90 73 58 S10 29.92S HX 98 N MYRTLE BEACH CLEAR 86 79 79 SW12 29.91S HX 99 6HR MIN TEMP: 86; 6HR MAX TEMP: 96; $$ GAZ063-065-086>088-099>101-113>116-118-119-134>141-150-300100- ...SOUTHEAST GEORGIA... CITY SKY/WX TMP DP RH WIND PRES REMARKS SAVANNAH ARPT PTCLDY 91 76 61 S9 29.94R HX 103 6HR MIN TEMP: 91; 6HR MAX TEMP: 100; HUNTER AAF CLEAR 89 80 75 S7 29.92R HX 106 6HR MIN TEMP: 89; 6HR MAX TEMP: 99; FORT STEWART CLEAR 93 70 47 CALM 29.91S HX 99 6HR MIN TEMP: 93; 6HR MAX TEMP: 99; STATESBORO MOCLDY 88 78 72 CALM 29.94R HX 101 SYLVANIA NOT AVBL CLAXTON MOCLDY 89 72 57 CALM 29.94R HX 96 ...CSRA...CENTRAL AND FAR SOUTHEAST GEORGIA... CITY SKY/WX TMP DP RH WIND PRES REMARKS THOMSON NOT AVBL AUGUSTA-BUSH CLEAR 94 65 38 W8 29.91R HX 96 6HR MIN TEMP: 94; 6HR MAX TEMP: 100; AUGUSTA-DANIEL MOCLDY 95 66 38 VRB6 29.94R HX 98 SWAINSBORO FAIR 91 64 40 CALM 29.95S HX 93 VIDALIA MOCLDY 95 63 34 SW5 29.96R HX 96 EASTMAN FAIR 92 51 24 SW3 29.98S HAZLEHURST FAIR 93 67 42 CALM 29.95S HX 97 ALMA CLEAR 93 65 39 W6 29.96R HX 95 6HR MIN TEMP: 93; 6HR MAX TEMP: 99; WAYCROSS CLEAR 94 73 49 SW6 29.97R HX 103 JESUP FAIR 91 77 62 CALM 29.95S HX 105 BAXLEY FAIR 93 72 49 SW3 29.95S HX 100 BRUNSWICK PTCLDY 90 81 74 S9 29.97R HX 108 SAINT SIMONS CLEAR 88 78 72 S15G21 29.96S HX 101 6HR MIN TEMP: 88; 6HR MAX TEMP: 99; $$ SCZ027-028-034-036>038-045-046-048>050-GAZ119-141-300100- ...LAKE AND SUPPLEMENTAL COASTAL OBSERVATIONS... STATION/POSITION TIME TEMP WIND PRES WAVE SWELL AIR SEA DIR/SP/G HT/PER HT/PER/DIR (UTC) (F) (DEG/KT/KT) (MB) (FT/S) (FT/S/D) WINYAH BAY 2345 87 220/ 10 1012.0S LAKE MURRAY 2300 94 CALM / 2 1011.9F ACE BASIN NERRS 2300 89 180/ 2 1013.0F FORT PULASKI 0000 88 N/A SAPELO ISLAND 0000 89 180/ 12 1014.0S $$ ANZ835-935-AMZ111-154-330-350-352-354-370-450-454-472-300100- ...C-MAN AND BUOY OBSERVATIONS... STATION/POSITION TIME TEMP WIND PRES WAVE SWELL AIR SEA DIR/SP/G HT/PER HT/PER/DIR (UTC) (F) (DEG/KT/KT) (MB) (FT/S) (FT/S/D) BUOY 41004 2350 86 86 210/ 17/ 19 1013.1R 3/ 4 2/150/ 8 BUOY 41008 2350 87 87 170/ 16/ 17 1014.1R 2/ 4 FOLLY BEACH CMAN 0000 86 210/ 18/ 20 1014.0R CAPERS NEARSHORE 2308 86 85 220/ 17/ 21 1013.5R FRIPP NEARSHORE 0008 87 87 200/ 17/ 21 1013.1R STATION/POSITION TIME TEMP WIND PRES WAVE SWELL AIR SEA DIR/SP/G HT/PER HT/PER/DIR (UTC) (F) (DEG/KT/KT) (MB) (FT/S) (FT/S/D) 5E ST. MARYS GA 0001 86 N/A 2/ 3 FRYING PAN BUOY 0000 86 85 210/ 14/ 17 1013.3R BUOY 41025 2350 86 86 230/ 19/ 23 1012.1R 4/ 5 2/320/14 CAPE LOOKOUT NC 0000 85 220/ 10/ 13 1012.6R BUOY 41002 2350 85 85 230/ 10/ 10 1015.6R 4/ 7 3/260/ 7 BUOY 41010 2320 87 87 250/ 2/ 2 1016.6S ST AUGUSTINE FL 0000 84 87 210/ 9/ 11 1017.1R $$

USA.gov is the U.S. government's official web portal to all federal, state and local government web resources and services.